EXPRESS-AM7

Last updated on Jan. 26, 2020, 4:40 a.m. UTC

1 40505U 15012A   20025.49234682  .00000143  00000-0  00000-0 0  9998
2 40505   0.0107  82.1358 0002139 220.7627  38.5491  1.00272009 17944
UTC
Height (km)
Latitude
Longitude
Inclination
Orbital Period
UTC large
Height (km)
Speed (km/s)
/
Latitude / Longitude
Inclination (degrees)
Orbital Period (minutes)
Azimuth
Elevation
Range (km)
Doppler Factor
iOS Compass Heading
iOS Angle

Next 30 passes for location: Hong Kong

Rise time Rise Azimuth (degrees) Set time Set Azimuth (degrees) Duration Max altitude (degrees)

No matching passes for this satellites